Location: Zapote
(9.9191°N, 84.0597°W)
Time: 11:57:23
(UTC-06:00)

Vanguard 2 - Visible Passes

Search period start: 04 March 2021 00:00
Search period end: 14 March 2021 00:00
Orbit: 552 x 2938 km, 32.9° (Epoch: 03 March)

Date Brightness Start Highest point End Pass type
(mag) Time Alt. Az. Time Alt. Az. Time Alt. Az.
04 Mar 10.6 02:23:40 40° NNE 02:23:40 40° NNE 02:35:12 10° NE visible
04 Mar 11.0 04:25:04 17° NW 04:34:59 32° N 04:50:01 10° NE visible
05 Mar 11.7 00:38:53 12° NE 00:38:53 12° NE 00:39:33 10° NE visible
05 Mar 10.6 02:40:16 38° N 02:40:16 38° N 02:53:23 10° NE visible
05 Mar 11.2 04:41:39 11° NW 04:54:18 31° N 05:09:06 10° ENE visible
06 Mar 11.5 00:55:28 15° NE 00:55:28 15° NE 00:57:37 10° NE visible
06 Mar 10.6 02:56:50 34° NNW 02:57:06 34° N 03:11:45 10° NE visible
06 Mar 11.3 04:59:58 10° NW 05:13:37 31° N 05:28:26 10° ENE visible
07 Mar 11.4 01:12:00 19° NE 01:12:00 19° NE 01:15:38 10° NE visible
07 Mar 10.7 03:13:23 29° NNW 03:16:11 30° N 03:30:26 10° NE visible
07 Mar 11.3 05:18:35 10° NW 05:32:52 34° NNE 05:47:54 10° ENE visible
08 Mar 11.2 01:28:32 22° NE 01:28:32 22° NE 01:33:41 10° NE visible
08 Mar 10.8 03:29:55 23° NNW 03:35:22 29° N 03:49:28 10° NE visible
09 Mar 11.1 01:45:04 24° NNE 01:45:04 24° NNE 01:51:53 10° NE visible
09 Mar 10.9 03:46:27 18° NW 03:54:35 29° N 04:08:50 10° ENE visible
10 Mar 11.0 02:01:36 25° NNE 02:01:36 25° NNE 02:10:20 10° NE visible
10 Mar 11.1 04:02:59 13° NW 04:13:46 30° NNE 04:28:27 10° ENE visible
11 Mar 10.9 02:18:08 25° N 02:18:08 25° N 02:29:10 10° NE visible
11 Mar 11.2 04:19:55 10° NW 04:32:49 34° NNE 04:48:08 10° ENE visible
12 Mar 10.8 02:34:43 25° N 02:36:13 25° N 02:48:24 10° NE visible
12 Mar 11.2 04:37:59 10° NW 04:51:42 38° NNE 05:07:44 10° E visible
13 Mar 11.6 00:49:55 11° NE 00:49:55 11° NE 00:50:22 10° NE visible
13 Mar 10.8 02:51:18 23° NNW 02:55:16 26° N 03:08:01 10° ENE visible
13 Mar 11.1 04:55:54 10° NW 05:10:24 45° NNE 05:27:04 10° E visible
